Regional Weather Roundup
Issued by NWS Green Bay, WI

Home | Current Version | Previous Version | Text Only | Print | Product List | Glossary On
Versions: 1 2 3 4 5 6 7 8 9 10 11 12 13 14 15 16 17 18 19 20 21 22 23 24 25 26 27 28 29 30 31 32 33 34 35 36 37 38 39 40 41 42 43 44 45 46 47 48 49 50
000
ASUS43 KGRB 100911
RWRGRB

NORTH-CENTRAL AND NORTHEAST WISCONSIN REGIONAL WEATHER ROUNDUP
NATIONAL WEATHER SERVICE GREEN BAY WI
300 AM CST SAT DEC 10 2016

WIZ005-009-010>012-018-019-101000-
NORTH CENTRAL WISCONSIN

CITY           SKY/WX    TMP DP  RH WIND       PRES   REMARKS
IRONWOOD       LGT SNOW   7   3  85 SW12      30.39S FOG     WCI  -9
MANITOWISH WTR CLOUDY     6   1  82 W5        30.35F WCI  -3
ARBOR VITAE    CLOUDY     9   1  70 NW8G16    30.35S WCI  -3
EAGLE RIVER    CLOUDY     8  -2  65 NW9       30.34S WCI  -6
LAND O LAKES   CLOUDY     7   0  71 W5        30.35F WCI  -2
RHINELANDER    CLOUDY    10   2  69 NW5       30.35S WCI   2
PHILLIPS       CLOUDY     8   2  78 NW3       30.38S
ANTIGO         LGT SNOW  11   7  84 NW5       30.35S WCI   3
TOMAHAWK       CLOUDY    10   5  82 CALM      30.37S
MERRILL        CLOUDY    12   4  70 W6        30.39R WCI   3
$$

WIZ013-073-101000-
NORTHEAST WISCONSIN

CITY           SKY/WX    TMP DP  RH WIND       PRES   REMARKS
IRON MOUNTAIN  CLEAR     10  -2  58 W10       30.35S WCI  -4
MARINETTE      FLURRIES  18  10  71 VRB5      30.41S
OCONTO         CLOUDY    18   6  60 W9        30.41S WCI   7
$$

WIZ017-030-035>037-045-101000-
CENTRAL WISCONSIN

CITY           SKY/WX    TMP DP  RH WIND       PRES   REMARKS
MEDFORD        CLOUDY    10   1  67 W7        30.38R WCI  -1
WAUSAU         CLOUDY    13   4  67 W13       30.39R WCI  -2
MOSINEE        CLOUDY    14   9  79 W9        30.40S WCI   2
MARSHFIELD     LGT SNOW  13   8  81 W7        30.40R WCI   3
WISC RAPIDS    CLOUDY    13   8  81 W7        30.44S WCI   3
STEVENS POINT  CLOUDY    13   7  78 W6        30.42S WCI   4
WAUPACA        CLOUDY    19  11  72 SW10      30.44S WCI   7
SHAWANO        CLOUDY    19   7  58 W7        30.42S
CLINTONVILLE   CLOUDY    18   9  68 W8        30.41F WCI   7
WAUTOMA        FLURRIES  14  10  85 W8        30.46S WCI   3
$$

WIZ038-039-048-051-101000-
FOX VALLEY

CITY           SKY/WX    TMP DP  RH WIND       PRES   REMARKS
NWS GREEN BAY  LGT SNOW  20  13  74 W10       30.43S WCI   9
APPLETON       PTCLDY    16   9  73 W7        30.41S WCI   6
OSHKOSH        CLOUDY    16   9  74 W6        30.44S WCI   7
FOND DU LAC    PTCLDY    15   7  70 W6        30.45S WCI   6
$$

WIZ022-050-052-101000-
EAST CENTRAL WISCONSIN

CITY           SKY/WX    TMP DP  RH WIND       PRES   REMARKS
EPHRAIM        CLOUDY    19   7  60 NW8       30.37F WCI   9
WASHINGTON ISL CLOUDY    18   6  60 NW13      30.38S WCI   4
STURGEON BAY   CLOUDY    19   7  59 W12       30.40S WCI   7
MANITOWOC      FLURRIES  20   9  62 W9        30.44S WCI   9
SHEBOYGAN      PTCLDY    17   9  70 W9        30.44S WCI   6
$$

LMZ563-521-522-541>543-101000-
LAKESHORE

STATION/POSITION TIME  TEMP    WIND        PRES    VSBY  WAVE
                       AIR SEA DIR/SP/G                  HT/PER
                 (UTC) (F)     (DEG/KT/KT) (MB)    (MI)  (FT/S)
SHEBOYGAN LKSHOR 0900   18     270/  9/ 12 1032.0S
KEWAUNEE LKSHORE 0848   18     290/  7/ 10 1029.5F
ALGOMA MARINA    0851          260/  7/  9   N/A
NORTHPORT PIER   0854   20     280/ 11/ 22 1028.8F
SISTER BAY LKSHO 0850   22     320/ 17/ 24   N/A
CHAMBERS ISLAND  0840   19     270/  5/ 11 1028.4F
MENOMINEE LKSHOR 0848   19     270/  5/ 10 1028.5F
$$



USA.gov is the U.S. government's official web portal to all federal, state and local government web resources and services.